Location: Newark
(44.9333°N, 0.5667°E)
Time: 09:38:35
(UTC+00:00)

UWE-3 - Pass Details

Date: 20 February 2020
Orbit: 585 x 683 km, 97.6° (Epoch: 07 April)

Event Time Altitude Azimuth Distance (km) Brightness Sun altitude
Rises 04:48:44 0° 21° (NNE) 3,027 ? -22.4°
Reaches altitude 10° 04:51:09 10° 31° (NNE) 2,118 ? -22.0°
Maximum altitude 04:55:21 33° 96° (E) 1,144 ? -21.3°
Drops below altitude 10° 04:59:33 10° 160° (SSE) 2,121 ? -20.5°
Sets 05:01:58 0° 170° (S) 3,031 ? -20.1°
